TimeCDT,TemperatureF,Dew PointF,Humidity,Sea Level PressureIn,VisibilityMPH,Wind Direction,Wind SpeedMPH,Gust SpeedMPH,PrecipitationIn,Events,Conditions,WindDirDegrees,DateUTC
12:15 AM,58.5,55.8,91,29.67,10.0,Calm,Calm,-,N/A,,Clear,0,2013-05-22 05:15:00
12:35 AM,58.5,55.9,91,29.67,10.0,Calm,Calm,-,N/A,,Clear,0,2013-05-22 05:35:00
12:55 AM,57.2,54.9,92,29.67,10.0,Calm,Calm,-,N/A,,Clear,0,2013-05-22 05:55:00
1:15 AM,56.5,54.7,94,29.68,10.0,Calm,Calm,-,N/A,,Clear,0,2013-05-22 06:15:00
1:35 AM,56.7,55.0,94,29.67,10.0,Calm,Calm,-,N/A,,Clear,0,2013-05-22 06:35:00
1:55 AM,55.9,54.7,96,29.67,10.0,Calm,Calm,-,N/A,,Clear,0,2013-05-22 06:55:00
2:15 AM,56.1,54.3,94,29.67,10.0,Calm,Calm,-,N/A,,Clear,0,2013-05-22 07:15:00
2:35 AM,56.5,55.2,96,29.67,10.0,Calm,Calm,-,N/A,,Clear,0,2013-05-22 07:35:00
2:55 AM,55.4,54.3,96,29.67,7.0,Calm,Calm,-,N/A,,Clear,0,2013-05-22 07:55:00
3:15 AM,55.4,54.9,98,29.67,10.0,Calm,Calm,-,N/A,,Mostly Cloudy,0,2013-05-22 08:15:00
3:35 AM,55.8,54.3,95,29.67,10.0,Calm,Calm,-,N/A,,Overcast,0,2013-05-22 08:35:00
3:55 AM,57.4,56.3,96,29.67,10.0,Calm,Calm,-,N/A,,Overcast,0,2013-05-22 08:55:00
4:15 AM,57.0,55.9,96,29.67,10.0,Calm,Calm,-,N/A,,Mostly Cloudy,0,2013-05-22 09:15:00
4:35 AM,56.8,55.0,94,29.65,10.0,ENE,4.6,-,N/A,,Scattered Clouds,70,2013-05-22 09:35:00
4:55 AM,56.7,54.5,92,29.64,10.0,East,4.6,-,N/A,,Scattered Clouds,80,2013-05-22 09:55:00
5:15 AM,57.4,55.2,92,29.63,10.0,ENE,5.8,-,N/A,,Clear,70,2013-05-22 10:15:00
5:35 AM,59.2,56.3,90,29.63,10.0,ENE,4.6,-,N/A,,Clear,70,2013-05-22 10:35:00
5:55 AM,60.3,56.3,87,29.64,10.0,ENE,3.5,-,N/A,,Mostly Cloudy,70,2013-05-22 10:55:00
6:15 AM,60.6,57.2,88,29.65,10.0,ENE,4.6,-,N/A,,Overcast,60,2013-05-22 11:15:00
6:35 AM,61.0,57.2,87,29.65,10.0,ENE,3.5,-,N/A,,Overcast,70,2013-05-22 11:35:00
6:55 AM,61.7,57.4,86,29.65,10.0,East,5.8,-,N/A,,Overcast,80,2013-05-22 11:55:00
7:15 AM,62.1,57.2,84,29.64,10.0,East,4.6,-,N/A,,Overcast,90,2013-05-22 12:15:00
7:35 AM,62.6,57.6,84,29.64,10.0,East,5.8,-,N/A,,Overcast,90,2013-05-22 12:35:00
7:55 AM,62.6,58.6,87,29.64,10.0,ESE,4.6,-,N/A,,Overcast,110,2013-05-22 12:55:00
8:15 AM,63.1,59.4,87,29.64,10.0,Calm,Calm,-,N/A,Rain,Light Rain,0,2013-05-22 13:15:00
8:35 AM,63.0,60.4,91,29.64,7.0,Calm,Calm,-,0.05,,Overcast,0,2013-05-22 13:35:00
9:55 AM,63.3,61.9,95,29.64,5.0,South,3.5,-,0.13,Rain,Light Rain,180,2013-05-22 14:55:00
10:15 AM,63.5,62.2,96,29.63,5.0,Calm,Calm,-,0.01,Rain,Light Rain,0,2013-05-22 15:15:00
10:35 AM,64.0,62.6,95,29.64,5.0,Calm,Calm,-,0.02,Rain,Light Rain,0,2013-05-22 15:35:00
11:15 AM,64.8,63.0,94,29.64,10.0,Calm,Calm,-,N/A,,Overcast,0,2013-05-22 16:15:00
11:35 AM,64.9,62.6,92,29.65,10.0,South,3.5,-,N/A,,Overcast,190,2013-05-22 16:35:00
11:55 AM,64.9,62.2,91,29.65,10.0,South,3.5,-,N/A,Rain,Light Rain,180,2013-05-22 16:55:00
12:15 PM,65.3,62.6,91,29.65,10.0,Calm,Calm,-,N/A,,Overcast,0,2013-05-22 17:15:00
1:15 PM,68.2,62.8,83,29.64,10.0,Calm,Calm,-,N/A,,Overcast,0,2013-05-22 18:15:00
1:35 PM,66.2,62.1,86,29.64,10.0,ENE,9.2,-,N/A,,Overcast,60,2013-05-22 18:35:00
1:55 PM,63.0,60.3,91,29.64,10.0,NE,11.5,-,N/A,,Light Drizzle,40,2013-05-22 18:55:00
2:15 PM,62.6,60.8,94,29.65,10.0,NE,8.1,-,0.01,Rain,Light Rain,40,2013-05-22 19:15:00
2:35 PM,63.0,61.2,94,29.66,7.0,ESE,4.6,-,0.01,,Overcast,110,2013-05-22 19:35:00
2:55 PM,63.3,61.5,94,29.65,7.0,NE,4.6,-,0.01,Rain,Light Rain,40,2013-05-22 19:55:00
3:15 PM,64.4,62.2,93,29.65,10.0,NNE,4.6,-,0.01,,Overcast,30,2013-05-22 20:15:00
3:35 PM,64.8,61.5,89,29.65,10.0,ENE,5.8,-,0.01,,Overcast,60,2013-05-22 20:35:00
4:35 PM,62.8,59.9,90,29.65,10.0,ENE,10.4,-,N/A,Thunderstorm,Unknown,60,2013-05-22 21:35:00
4:55 PM,61.7,59.2,91,29.65,10.0,NE,4.6,-,N/A,Thunderstorm,Overcast,40,2013-05-22 21:55:00
5:15 PM,61.0,59.4,94,29.67,1.5,ENE,4.6,-,0.18,Rain,Heavy Rain,60,2013-05-22 22:15:00
5:55 PM,59.5,58.6,97,29.68,3.0,ENE,6.9,-,0.40,Rain-Thunderstorm,Heavy Thunderstorms and Rain,70,2013-05-22 22:55:00
6:15 PM,59.2,58.3,97,29.69,3.0,East,5.8,-,0.07,Rain,Rain,80,2013-05-22 23:15:00
6:35 PM,59.0,58.3,97,29.67,5.0,ENE,11.5,-,0.14,Rain,Light Rain,60,2013-05-22 23:35:00
6:55 PM,58.6,58.1,98,29.68,10.0,NE,9.2,-,0.14,,Overcast,50,2013-05-22 23:55:00
7:15 PM,58.6,58.1,98,29.69,10.0,ENE,4.6,-,N/A,,Overcast,70,2013-05-23 00:15:00
7:35 PM,58.8,57.9,97,29.69,10.0,East,8.1,-,N/A,,Overcast,90,2013-05-23 00:35:00
7:55 PM,58.3,56.7,94,29.71,10.0,East,6.9,-,N/A,,Overcast,90,2013-05-23 00:55:00
8:15 PM,57.4,55.6,94,29.72,10.0,ESE,5.8,-,N/A,,Overcast,110,2013-05-23 01:15:00
8:35 PM,56.8,54.9,93,29.72,10.0,East,6.9,-,N/A,,Overcast,80,2013-05-23 01:35:00
8:55 PM,56.3,55.2,96,29.72,7.0,ENE,5.8,-,0.03,Rain,Rain,70,2013-05-23 01:55:00
9:15 PM,56.3,54.9,95,29.74,10.0,East,3.5,-,0.02,Rain,Light Rain,80,2013-05-23 02:15:00
9:35 PM,55.9,54.9,96,29.74,10.0,ESE,3.5,-,0.04,Rain,Light Rain,120,2013-05-23 02:35:00
9:55 PM,55.8,54.7,96,29.75,7.0,East,3.5,-,0.09,Rain,Rain,80,2013-05-23 02:55:00
10:15 PM,55.4,54.7,97,29.75,5.0,ENE,5.8,-,0.04,Rain,Light Rain,60,2013-05-23 03:15:00
10:35 PM,55.6,55.0,98,29.76,7.0,Calm,Calm,-,0.07,Rain,Light Rain,0,2013-05-23 03:35:00
10:55 PM,55.4,54.9,98,29.76,5.0,Calm,Calm,-,0.09,,Heavy Drizzle,0,2013-05-23 03:55:00
11:15 PM,55.4,55.0,99,29.77,4.0,Calm,Calm,-,0.03,,Drizzle,0,2013-05-23 04:15:00
11:35 PM,55.4,54.9,98,29.77,5.0,North,9.2,-,0.04,Rain,Rain,360,2013-05-23 04:35:00
11:55 PM,54.1,53.2,97,29.78,10.0,NNE,11.5,16.1,0.05,Rain,Rain,30,2013-05-23 04:55:00